• In United Kingdom
  • List of Countries
  • For 7 days
  • Water Temperature
  • Satellite Maps
  • Weather Map
  • Weather Widgets
  • user-avatar
    Login

    Hourly Weather Jablowko

    Today, 23 October, Tuesday

    Time Temperature Precipitation Wind Pressure Humidity
    00:00 +5°C° 0 mm 4 mps 758 mmHg 85%
    01:00 +5°C° 0 mm 5 mps 757 mmHg 87%
    02:00 +5°C° 0 mm 5 mps 756 mmHg 85%
    03:00 +4°C° 0 mm 6 mps 755 mmHg 83%
    04:00 +4°C° 0 mm 6 mps 754 mmHg 81%
    05:00 +4°C° 0.5 mm 7 mps 752 mmHg 81%
    06:00 +4°C° 0.5 mm 8 mps 751 mmHg 80%
    07:00 +3°C° 0 mm 9 mps 749 mmHg 81%
    08:00 +3°C° 1.3 mm 10 mps 748 mmHg 80%
    09:00 +3°C° 1.3 mm 10 mps 746 mmHg 79%
    10:00 +4°C° 1.3 mm 11 mps 744 mmHg 79%
    11:00 +6°C° 1.1 mm 11 mps 743 mmHg 80%
    12:00 +6°C° 1.1 mm 10 mps 742 mmHg 80%
    13:00 +7°C° 1.1 mm 10 mps 741 mmHg 81%
    14:00 +8°C° 1.2 mm 9 mps 740 mmHg 80%
    15:00 +8°C° 1.2 mm 9 mps 739 mmHg 78%
    16:00 +9°C° 1.2 mm 8 mps 738 mmHg 77%
    17:00 +9°C° 0.1 mm 8 mps 738 mmHg 76%
    18:00 +7°C° 0.1 mm 8 mps 738 mmHg 75%
    19:00 +8°C° 0.1 mm 7 mps 737 mmHg 75%
    20:00 +6°C° 0.2 mm 7 mps 737 mmHg 74%
    21:00 +6°C° 0.2 mm 7 mps 737 mmHg 73%
    22:00 +6°C° 0.2 mm 7 mps 737 mmHg 72%
    23:00 +6°C° 0.4 mm 7 mps 737 mmHg 73%

    Tomorrow, 24 October, Wednesday

    Time Temperature Precipitation Wind Pressure Humidity
    00:00 +6°C° 0.4 mm 7 mps 737 mmHg 73%
    01:00 +5°C° 0.4 mm 7 mps 737 mmHg 73%
    02:00 +5°C° 0.4 mm 8 mps 738 mmHg 71%
    03:00 +5°C° 0.4 mm 8 mps 738 mmHg 70%
    04:00 +5°C° 0.4 mm 9 mps 739 mmHg 68%
    05:00 +4°C° 0 mm 8 mps 740 mmHg 65%
    06:00 +2°C° 0 mm 8 mps 740 mmHg 62%
    07:00 +2°C° 0 mm 8 mps 741 mmHg 59%
    08:00 +2°C° 0 mm 9 mps 742 mmHg 57%
    09:00 +3°C° 0 mm 10 mps 742 mmHg 56%
    10:00 +4°C° 0 mm 11 mps 743 mmHg 54%
    11:00 +4°C° 0 mm 11 mps 744 mmHg 54%
    12:00 +4°C° 0 mm 11 mps 744 mmHg 54%
    13:00 +4°C° 0 mm 11 mps 745 mmHg 55%
    14:00 +5°C° 0 mm 10 mps 746 mmHg 55%
    15:00 +5°C° 0 mm 9 mps 746 mmHg 56%
    16:00 +5°C° 0 mm 9 mps 747 mmHg 56%
    17:00 +5°C° 0 mm 8 mps 747 mmHg 58%
    18:00 +4°C° 0 mm 7 mps 748 mmHg 61%
    19:00 +4°C° 0 mm 6 mps 749 mmHg 63%
    20:00 +4°C° 0 mm 6 mps 749 mmHg 64%
    21:00 +5°C° 0 mm 5 mps 749 mmHg 66%
    22:00 +3°C° 0 mm 5 mps 749 mmHg 67%
    23:00 +4°C° 0 mm 4 mps 749 mmHg 68%

    Day after tomorrow, 25 October, Thursday

    Time Temperature Precipitation Wind Pressure Humidity
    00:00 +4°C° 0 mm 4 mps 749 mmHg 70%
    01:00 +3°C° 0 mm 4 mps 749 mmHg 71%
    02:00 +3°C° 0 mm 4 mps 748 mmHg 74%
    03:00 +3°C° 0 mm 4 mps 747 mmHg 76%
    04:00 +3°C° 0 mm 4 mps 747 mmHg 78%
    05:00 +3°C° 0.4 mm 5 mps 746 mmHg 82%
    06:00 +3°C° 0.4 mm 5 mps 745 mmHg 85%
    07:00 +3°C° 0.4 mm 5 mps 744 mmHg 88%
    08:00 +5°C° 0.3 mm 6 mps 743 mmHg 85%
    09:00 +8°C° 0.3 mm 7 mps 743 mmHg 82%
    10:00 +10°C° 0.3 mm 7 mps 742 mmHg 79%
    11:00 +10°C° 0.2 mm 8 mps 742 mmHg 75%
    12:00 +10°C° 0.2 mm 9 mps 742 mmHg 70%
    13:00 +10°C° 0.2 mm 9 mps 741 mmHg 66%
    14:00 +8°C° 0.1 mm 9 mps 742 mmHg 67%
    15:00 +9°C° 0.1 mm 8 mps 742 mmHg 68%
    16:00 +8°C° 0.1 mm 7 mps 742 mmHg 69%
    17:00 +8°C° 0 mm 7 mps 743 mmHg 71%
    18:00 +7°C° 0 mm 6 mps 743 mmHg 73%
    19:00 +7°C° 0 mm 6 mps 744 mmHg 75%
    20:00 +7°C° 0 mm 6 mps 744 mmHg 76%
    21:00 +7°C° 0 mm 6 mps 744 mmHg 78%
    22:00 +7°C° 0 mm 5 mps 744 mmHg 79%
    23:00 +6°C° 0 mm 5 mps 745 mmHg 80%

    26 October, Friday

    Time Temperature Precipitation Wind Pressure Humidity
    00:00 +6°C° 0 mm 5 mps 745 mmHg 82%
    01:00 +6°C° 0 mm 5 mps 745 mmHg 84%
    02:00 +6°C° 0 mm 5 mps 745 mmHg 85%
    03:00 +6°C° 0 mm 4 mps 745 mmHg 87%
    04:00 +5°C° 0 mm 4 mps 745 mmHg 88%
    05:00 +5°C° 0 mm 4 mps 745 mmHg 88%
    06:00 +5°C° 0 mm 4 mps 745 mmHg 88%
    07:00 +5°C° 0 mm 4 mps 745 mmHg 88%
    08:00 +6°C° 0 mm 4 mps 745 mmHg 84%
    09:00 +7°C° 0 mm 5 mps 745 mmHg 79%
    10:00 +8°C° 0 mm 5 mps 745 mmHg 74%
    11:00 +8°C° 0 mm 5 mps 744 mmHg 71%
    12:00 +9°C° 0 mm 6 mps 743 mmHg 69%
    13:00 +9°C° 0 mm 6 mps 743 mmHg 66%
    14:00 +9°C° 0.1 mm 6 mps 742 mmHg 71%
    15:00 +9°C° 0.1 mm 6 mps 742 mmHg 77%
    16:00 +9°C° 0.1 mm 7 mps 741 mmHg 82%
    17:00 +9°C° 0.1 mm 7 mps 740 mmHg 81%
    18:00 +9°C° 0.1 mm 7 mps 740 mmHg 79%
    19:00 +9°C° 0.1 mm 7 mps 739 mmHg 78%
    20:00 +7°C° 0.2 mm 8 mps 739 mmHg 77%
    21:00 +7°C° 0.2 mm 8 mps 739 mmHg 76%
    22:00 +7°C° 0.2 mm 9 mps 738 mmHg 75%
    23:00 +6°C° 0.2 mm 9 mps 738 mmHg 74%

    27 October, Saturday

    Time Temperature Precipitation Wind Pressure Humidity
    00:00 +6°C° 0.2 mm 9 mps 738 mmHg 74%
    01:00 +5°C° 0.2 mm 9 mps 738 mmHg 73%
    02:00 +5°C° 0.1 mm 9 mps 738 mmHg 72%
    03:00 +5°C° 0.1 mm 9 mps 738 mmHg 70%
    04:00 +5°C° 0.1 mm 9 mps 738 mmHg 69%
    05:00 +5°C° 0.1 mm 10 mps 739 mmHg 69%
    06:00 +3°C° 0.1 mm 10 mps 739 mmHg 68%
    07:00 +3°C° 0.1 mm 10 mps 740 mmHg 68%
    08:00 +5°C° 0.1 mm 9 mps 741 mmHg 67%
    09:00 +5°C° 0.1 mm 9 mps 742 mmHg 67%
    10:00 +5°C° 0.1 mm 9 mps 743 mmHg 66%
    11:00 +5°C° 0.1 mm 8 mps 743 mmHg 66%
    12:00 +5°C° 0.1 mm 7 mps 744 mmHg 65%
    13:00 +7°C° 0.1 mm 6 mps 745 mmHg 65%
    14:00 +6°C° 0.2 mm 5 mps 746 mmHg 67%
    15:00 +6°C° 0.2 mm 5 mps 746 mmHg 69%
    16:00 +5°C° 0.2 mm 4 mps 747 mmHg 71%
    17:00 +5°C° 0 mm 3 mps 748 mmHg 74%
    18:00 +4°C° 0 mm 3 mps 748 mmHg 77%
    19:00 +4°C° 0 mm 2 mps 749 mmHg 81%
    20:00 +4°C° 0 mm 2 mps 749 mmHg 82%
    21:00 +4°C° 0 mm 2 mps 750 mmHg 83%
    22:00 +3°C° 0 mm 2 mps 750 mmHg 84%
    23:00 +3°C° 0 mm 2 mps 751 mmHg 84%

    28 October, Sunday

    Time Temperature Precipitation Wind Pressure Humidity
    00:00 +3°C° 0 mm 2 mps 751 mmHg 84%
    01:00 +3°C° 0 mm 2 mps 751 mmHg 83%
    02:00 +3°C° 0 mm 2 mps 751 mmHg 83%
    03:00 +4°C° 0 mm 1 mps 752 mmHg 82%
    04:00 +3°C° 0 mm 1 mps 752 mmHg 81%
    05:00 +3°C° 0 mm 1 mps 752 mmHg 80%
    06:00 +3°C° 0 mm 1 mps 753 mmHg 80%
    07:00 +4°C° 0 mm 1 mps 753 mmHg 79%
    08:00 +4°C° 0 mm 2 mps 753 mmHg 73%
    09:00 +5°C° 0 mm 2 mps 754 mmHg 68%
    10:00 +6°C° 0 mm 2 mps 754 mmHg 62%
    11:00 +5°C° 0 mm 3 mps 754 mmHg 60%
    12:00 +7°C° 0 mm 3 mps 754 mmHg 58%
    13:00 +6°C° 0 mm 4 mps 754 mmHg 56%
    14:00 +6°C° 0 mm 4 mps 754 mmHg 58%
    15:00 +5°C° 0 mm 4 mps 754 mmHg 60%
    16:00 +5°C° 0 mm 4 mps 754 mmHg 62%
    17:00 +4°C° 0 mm 4 mps 754 mmHg 63%
    18:00 +4°C° 0 mm 4 mps 754 mmHg 64%
    19:00 +4°C° 0 mm 4 mps 754 mmHg 65%
    20:00 +3°C° 0 mm 5 mps 754 mmHg 65%
    21:00 +3°C° 0 mm 5 mps 754 mmHg 65%
    22:00 +3°C° 0 mm 5 mps 754 mmHg 66%
    23:00 +2°C° 0 mm 6 mps 754 mmHg 66%

    29 October, Monday

    Time Temperature Precipitation Wind Pressure Humidity
    00:00 +2°C° 0 mm 6 mps 754 mmHg 66%
    01:00 +2°C° 0 mm 7 mps 754 mmHg 67%
    02:00 +2°C° 0.1 mm 7 mps 753 mmHg 67%
    03:00 +2°C° 0.1 mm 7 mps 753 mmHg 67%
    04:00 +2°C° 0.1 mm 7 mps 753 mmHg 68%
    05:00 +1°C° 0.1 mm 8 mps 752 mmHg 68%
    06:00 +1°C° 0.1 mm 8 mps 752 mmHg 68%
    07:00 +1°C° 0.1 mm 8 mps 752 mmHg 68%
    08:00 +1°C° 0.2 mm 9 mps 752 mmHg 68%
    09:00 +1°C° 0.2 mm 9 mps 752 mmHg 68%
    10:00 +1°C° 0.2 mm 9 mps 752 mmHg 67%
    11:00 +1°C° 0.3 mm 10 mps 751 mmHg 70%
    12:00 +1°C° 0.3 mm 10 mps 751 mmHg 72%
    13:00 +1°C° 0.3 mm 10 mps 750 mmHg 74%
    14:00 0°C° 0.8 mm 9 mps 750 mmHg 77%
    15:00 0°C° 0.8 mm 9 mps 749 mmHg 80%
    16:00 0°C° 0.8 mm 9 mps 749 mmHg 84%
    17:00 0°C° 0.6 mm 9 mps 749 mmHg 85%
    18:00 0°C° 0.6 mm 9 mps 748 mmHg 86%
    19:00 0°C° 0.6 mm 9 mps 748 mmHg 87%
    20:00 -1°C° 0.5 mm 9 mps 748 mmHg 88%
    21:00 -1°C° 0.5 mm 8 mps 748 mmHg 89%
    22:00 -1°C° 0.5 mm 8 mps 748 mmHg 89%
    23:00 -1°C° 0.3 mm 8 mps 747 mmHg 90%
    Show more